Weather History for KCKC - December, 2012

Change the Weather History Date:

Friday, December 28, 2012

  Actual Average Record
Temperature  
Mean Temperature 12 °F -  
Max Temperature 17 °F 15 °F 39 °F (2003)
Min Temperature 8 °F 1 °F -18 °F (2000)
Degree Days  
Heating Degree Days 52    
Moisture  
Dew Point 7 °F    
Average Humidity 80    
Maximum Humidity 92    
Minimum Humidity 73    
Precipitation  
Precipitation 0.01 in - - ()
Sea Level Pressure  
Sea Level Pressure 30.02 in    
Wind  
Wind Speed 3 mph (NNE)    
Max Wind Speed 6 mph    
Max Gust Speed -    
Visibility 6 miles    
Events Snow    
Averages and records for this station are not official NWS values.
T = Trace of Precipitation, MM = Missing Value Source: NWS Daily Summary

Daily Weather History Graph

Daily Weather History Graph

Search for Another Location

Airport or City:

Trip Planner

Search our weather history database for the weather conditions in past years. The results will help you decide how hot, cold, wet, or windy it might be!

Date:

Astronomy

Dec. 28, 2012 Rise Set
Actual Time 7:50 AM CST 4:16 PM CST
Civil Twilight 7:14 AM CST 4:52 PM CST
Nautical Twilight 6:34 AM CST 5:32 PM CST
Astronomical Twilight 5:57 AM CST 6:09 PM CST
Moon 4:58 PM CST (12/28) 7:40 AM CST (12/28)
Length of Visible Light 9h 38m
Length of Day
8h 26m
Full, 100% of the Moon is Illuminated
Dec 28
Full
Jan 4
Last Quarter
Jan 11
New
Jan 18
First Quarter
Jan 26
Full

Hourly Weather History & Observations

Time (CST) Temp. Windchill Dew Point Humidity Pressure Visibility Wind Dir Wind Speed Gust Speed Precip Events Conditions
12:13 AM 10.4 °F 4.0 °F 3.2 °F 73% 30.10 in 10.0 mi North 3.5 mph - N/A   Overcast
12:34 AM 10.4 °F 4.0 °F 3.2 °F 73% 30.10 in 10.0 mi NNE 3.5 mph - N/A   Overcast
12:53 AM 8.6 °F 0.1 °F 3.2 °F 79% 30.10 in 10.0 mi North 4.6 mph - N/A   Overcast
1:14 AM 8.6 °F 2.0 °F 3.2 °F 79% 30.10 in 10.0 mi North 3.5 mph - N/A   Overcast
1:33 AM 8.6 °F 2.0 °F 3.2 °F 79% 30.10 in 10.0 mi North 3.5 mph - N/A   Mostly Cloudy
1:54 AM 8.6 °F 2.0 °F 3.2 °F 79% 30.10 in 10.0 mi North 3.5 mph - N/A   Scattered Clouds
2:13 AM 8.6 °F 2.0 °F 3.2 °F 79% 30.10 in 10.0 mi North 3.5 mph - N/A   Scattered Clouds
2:34 AM 8.6 °F 2.0 °F 3.2 °F 79% 30.10 in 10.0 mi NNE 3.5 mph - N/A   Mostly Cloudy
2:54 AM 8.6 °F 2.0 °F 3.2 °F 79% 30.10 in 7.0 mi North 3.5 mph - N/A   Mostly Cloudy
3:13 AM 8.6 °F 2.0 °F 3.2 °F 79% 30.09 in 5.0 mi North 3.5 mph - N/A Snow Light Snow
3:33 AM 8.6 °F 2.0 °F 3.2 °F 79% 30.09 in 4.0 mi North 3.5 mph - N/A Snow Light Snow
3:54 AM 10.4 °F - 5.0 °F 79% 30.09 in 3.0 mi Calm Calm - N/A Snow Light Snow
4:13 AM 10.4 °F - 5.0 °F 79% 30.09 in 3.0 mi Calm Calm - N/A Snow Light Snow
4:34 AM 10.4 °F - 5.0 °F 79% 30.09 in 5.0 mi Calm Calm - N/A Snow Light Snow
4:54 AM 10.4 °F - 5.0 °F 79% 30.08 in 2.0 mi Calm Calm - N/A Snow Light Snow
5:14 AM 10.4 °F - 5.0 °F 79% 30.08 in 1.8 mi Calm Calm - N/A Snow Light Snow
5:34 AM 10.4 °F - 5.0 °F 79% 30.07 in 1.8 mi Calm Calm - N/A Snow Light Snow
5:54 AM 10.4 °F 4.0 °F 5.0 °F 79% 30.08 in 3.0 mi North 3.5 mph - N/A Snow Light Snow
6:13 AM 10.4 °F 4.0 °F 5.0 °F 79% 30.07 in 2.5 mi North 3.5 mph - N/A Snow Light Snow
6:34 AM 10.4 °F 4.0 °F 5.0 °F 79% 30.07 in 3.0 mi North 3.5 mph - N/A Snow Light Snow
6:54 AM 10.4 °F 4.0 °F 5.0 °F 79% 30.07 in 3.0 mi North 3.5 mph - N/A Snow Light Snow
7:13 AM 8.6 °F 0.1 °F 5.0 °F 85% 30.07 in 3.0 mi North 4.6 mph - N/A Snow Light Snow
7:54 AM 8.6 °F 0.1 °F 3.2 °F 79% 30.07 in 5.0 mi NNE 4.6 mph - N/A Snow Light Snow
8:13 AM 8.6 °F 0.1 °F 3.2 °F 79% 30.06 in 5.0 mi NNE 4.6 mph - N/A Snow Light Snow
8:33 AM 8.6 °F 2.0 °F 5.0 °F 85% 30.06 in 7.0 mi NNE 3.5 mph - N/A Snow Light Snow
8:54 AM 8.6 °F 0.1 °F 5.0 °F 85% 30.06 in 10.0 mi NNE 4.6 mph - N/A   Overcast
9:14 AM 8.6 °F 0.1 °F 5.0 °F 85% 30.06 in 10.0 mi NNE 4.6 mph - N/A   Mostly Cloudy
9:33 AM 10.4 °F 2.2 °F 5.0 °F 79% 30.06 in 10.0 mi NNE 4.6 mph - N/A   Clear
9:53 AM 10.4 °F 4.0 °F 6.8 °F 85% 30.06 in 10.0 mi NNE 3.5 mph - N/A   Clear
10:14 AM 12.2 °F - 6.8 °F 79% 30.06 in 10.0 mi Calm Calm - N/A   Clear
10:34 AM 14.0 °F - 8.6 °F 79% 30.06 in 7.0 mi Calm Calm - N/A   Clear
10:53 AM 14.0 °F - 8.6 °F 79% 30.05 in 4.0 mi Calm Calm - N/A Snow Light Snow
11:13 AM 15.8 °F - 8.6 °F 73% 30.04 in 5.0 mi Calm Calm - N/A Snow Light Snow
11:34 AM 15.8 °F 8.6 °F 8.6 °F 73% 30.03 in 7.0 mi NE 4.6 mph - N/A   Scattered Clouds
12:13 PM 17.6 °F - 10.4 °F 73% 30.02 in 3.0 mi Calm Calm - N/A Snow Light Snow
12:33 PM 17.6 °F - 10.4 °F 73% 30.01 in 2.5 mi Calm Calm - N/A Snow Light Snow
12:54 PM 17.6 °F 12.3 °F 10.4 °F 73% 30.01 in 2.5 mi NE 3.5 mph - N/A Snow Light Snow
1:14 PM 17.6 °F 10.7 °F 10.4 °F 73% 30.00 in 4.0 mi NE 4.6 mph - N/A Snow Light Snow
1:33 PM 17.6 °F 10.7 °F 10.4 °F 73% 30.00 in 4.0 mi NE 4.6 mph - N/A Snow Light Snow
1:54 PM 17.6 °F 12.3 °F 10.4 °F 73% 29.99 in 7.0 mi ENE 3.5 mph - N/A Snow Light Snow
2:13 PM 17.6 °F 10.7 °F 10.4 °F 73% 29.99 in 5.0 mi ENE 4.6 mph - N/A   Haze
2:34 PM 17.6 °F 10.7 °F 10.4 °F 73% 29.98 in 7.0 mi ENE 4.6 mph - N/A Snow Light Snow
2:53 PM 17.6 °F 10.7 °F 10.4 °F 73% 29.98 in 5.0 mi ENE 4.6 mph - N/A   Haze
3:14 PM 15.8 °F 8.6 °F 10.4 °F 79% 29.98 in 5.0 mi ENE 4.6 mph - N/A   Haze
3:33 PM 15.8 °F - 10.4 °F 79% 29.98 in 10.0 mi Calm Calm - N/A   Overcast
3:53 PM 15.8 °F 10.2 °F 8.6 °F 73% 29.98 in 10.0 mi ENE 3.5 mph - N/A   Overcast
4:14 PM 14.0 °F - 8.6 °F 79% 29.98 in 10.0 mi Calm Calm - N/A Snow Light Snow
4:33 PM 15.8 °F - 10.4 °F 79% 29.98 in 10.0 mi Calm Calm - 0.01 in Snow Light Snow
4:53 PM 15.8 °F - 10.4 °F 79% 29.98 in 3.0 mi Calm Calm - 0.01 in Snow Light Snow
5:14 PM 15.8 °F - 10.4 °F 79% 29.98 in 4.0 mi Calm Calm - N/A Snow Light Snow
5:34 PM 12.2 °F - 10.4 °F 92% 29.98 in 7.0 mi Calm Calm - N/A Snow Light Snow
5:53 PM 12.2 °F 6.1 °F 8.6 °F 85% 29.98 in 7.0 mi ENE 3.5 mph - N/A Snow Light Snow
6:14 PM 12.2 °F 4.3 °F 8.6 °F 85% 29.98 in 7.0 mi ENE 4.6 mph - N/A Snow Light Snow
6:33 PM 10.4 °F - 6.8 °F 85% 29.98 in 7.0 mi Calm Calm - N/A Snow Light Snow
6:54 PM 10.4 °F 2.2 °F 6.8 °F 85% 29.98 in 10.0 mi NNE 4.6 mph - N/A Snow Light Snow
7:13 PM 10.4 °F 2.2 °F 6.8 °F 85% 29.98 in 7.0 mi NNE 4.6 mph - N/A Snow Light Snow
7:33 PM 10.4 °F 2.2 °F 6.8 °F 85% 29.97 in 7.0 mi North 4.6 mph - N/A Snow Light Snow
7:53 PM 10.4 °F 2.2 °F 6.8 °F 85% 29.97 in 10.0 mi North 4.6 mph - N/A Snow Light Snow
8:14 PM 10.4 °F 2.2 °F 6.8 °F 85% 29.97 in 7.0 mi NNE 4.6 mph - N/A Snow Light Snow
8:34 PM 10.4 °F 0.8 °F 6.8 °F 85% 29.96 in 5.0 mi NNE 5.8 mph - N/A Snow Light Snow
8:53 PM 10.4 °F 4.0 °F 6.8 °F 85% 29.96 in 7.0 mi NNE 3.5 mph - N/A Snow Light Snow
9:13 PM 10.4 °F 4.0 °F 6.8 °F 85% 29.96 in 4.0 mi NNE 3.5 mph - N/A Snow Light Snow
9:33 PM 10.4 °F 4.0 °F 6.8 °F 85% 29.96 in 7.0 mi NNE 3.5 mph - N/A Snow Light Snow
9:54 PM 10.4 °F 0.8 °F 6.8 °F 85% 29.96 in 5.0 mi North 5.8 mph - N/A Snow Light Snow
10:13 PM 10.4 °F 2.2 °F 6.8 °F 85% 29.96 in 10.0 mi North 4.6 mph - N/A Snow Light Snow
10:34 PM 10.4 °F 4.0 °F 6.8 °F 85% 29.96 in 5.0 mi North 3.5 mph - N/A Snow Light Snow
10:54 PM 10.4 °F 4.0 °F 6.8 °F 85% 29.95 in 5.0 mi North 3.5 mph - N/A Snow Light Snow
11:13 PM 10.4 °F 2.2 °F 6.8 °F 85% 29.94 in 3.0 mi North 4.6 mph - N/A Snow Light Snow
11:33 PM 10.4 °F 2.2 °F 5.0 °F 79% 29.94 in 4.0 mi North 4.6 mph - N/A Snow Light Snow
11:54 PM 10.4 °F 0.8 °F 6.8 °F 85% 29.93 in 7.0 mi North 5.8 mph - N/A Snow Light Snow